Find Starlink 3754

NORAD ID: 52350 Int'l Des: 2022-045 Owner: SPXS Country: US Constellation: starlink operational
LEOCIRCULAR

Live Position

Loading 3D Globe...

About Starlink 3754

Description loading...

Upcoming Passes

Passes for default location (London). Set your location on the main map for personalized predictions.

Altitude History

Loading altitude history...

Two-Line Element Set

1 52350U 22045V 26119.30370490 .00001078 00000-0 85799-4 0 9991
2 52350 53.2182 331.9080 0001248 95.9438 264.1696 15.08838520223422
Epoch: Apr 29, 2026 • Age: 5 hours

Current Status

Altitude 542.7 km
Velocity 7.60 km/s
Sub-Earth Point 40.61°N, 64.62°E
Launch Date Apr 29, 2022
Age 3.9 years
Type internet

Technical Details

Classification Payload
Mass 297.00 kg
Dry Mass 275.00 kg
Total Mass 297.00 kg
Length 0.20 m
Diameter 2.80 m
Span 9.00 m
Shape Box + pan
Manufacturer SPXS
Bus Type Starlink
Phase Status In Orbit
Owner/State SPXS/US

Most Searched